User: anonymous   Login
Location: Bermeries
(50.2863°N, 3.7551°E)
Time: 20:55:29
(UTC+00:00)
Language:

Cosmos 1850 Rocket - Orbit

View from above orbital plane
View from above orbital plane
View from above satellite
View from above satellite

Ground track
Ground track

The orbit data is extracted from the following two-line orbital elements,

1 18096U 87049B   24198.21875843  .00000608  00000-0  21221-3 0  9999
2 18096  74.0414 155.1311 0020485  49.2657 311.0271 14.37289732943361
Epoch (UTC): 16 July 2024 05:15:00
Eccentricity: 0.0020485
inclination: 74.0414°
perigee height: 753 km
apogee height: 782 km
right ascension of ascending node: 155.1311°
argument of perigee: 49.2657°
revolutions per day: 14.37289732
mean anomaly at epoch: 311.0271°
orbit number at epoch: 94336

The dashed part of the orbit path shows where the satellite is in the earth's shadow,  

DLR